| time (UTC) | temp F | wind direction | speed MPH | gust MPH | rain 1hr in | rain 24hr in | rain mn in | humidity % | barometer mb |
| 20260503175220 | 57 | 309 | 2.0 | 3.0 | 0.00 | 0.24 | 0.15 | 85 | 1013.0 |
| 20260503174720 | 57 | 292 | 3.0 | 9.0 | 0.00 | 0.25 | 0.15 | 85 | 1013.0 |
| 20260503174220 | 57 | 281 | 2.0 | 6.0 | 0.00 | 0.27 | 0.15 | 86 | 1013.0 |
| 20260503173720 | 57 | 301 | 2.0 | 3.0 | 0.00 | 0.27 | 0.15 | 86 | 1013.0 |
| 20260503173220 | 57 | 291 | 3.0 | 8.0 | 0.00 | 0.31 | 0.15 | 85 | 1013.0 |
| 20260503172720 | 57 | 293 | 2.0 | 7.0 | 0.00 | 0.32 | 0.15 | 86 | 1012.9 |
| 20260503172220 | 57 | 338 | 3.0 | 3.0 | 0.00 | 0.32 | 0.15 | 86 | 1012.9 |
| 20260503171720 | 57 | 308 | 2.0 | 3.0 | 0.00 | 0.32 | 0.15 | 85 | 1012.9 |
| 20260503171220 | 58 | 295 | 7.0 | 8.0 | 0.00 | 0.32 | 0.15 | 84 | 1012.8 |
| 20260503170719 | 58 | 297 | 3.0 | 6.0 | 0.00 | 0.32 | 0.15 | 86 | 1012.8 |
| 20260503170219 | 57 | 331 | 1.0 | 3.0 | 0.00 | 0.32 | 0.15 | 86 | 1012.8 |
| 20260503150720 | 58 | 291 | 7.0 | 8.0 | 0.00 | 0.71 | 0.15 | 81 | 1012.5 |
| 20260503150220 | 58 | 292 | 6.0 | 8.0 | 0.00 | 0.71 | 0.15 | 83 | 1012.6 |
| 20260503140219 | 59 | 293 | 7.0 | 10.0 | 0.00 | 0.76 | 0.15 | 81 | 1012.8 |
| 20260503131219 | 58 | 65 | 2.0 | 3.0 | 0.00 | 1.02 | 0.15 | 82 | 1012.8 |
| 20260503130720 | 58 | 292 | 7.0 | 9.0 | 0.00 | 1.03 | 0.15 | 83 | 1012.8 |
| 20260503130220 | 57 | 284 | 3.0 | 5.0 | 0.00 | 1.03 | 0.15 | 82 | 1012.8 |
| 20260503120219 | 57 | 19 | 1.0 | 3.0 | 0.00 | 1.31 | 0.15 | 86 | 1013.0 |
| 20260503110719 | 57 | 290 | 2.0 | 3.0 | 0.00 | 1.31 | 0.15 | 90 | 1013.2 |
| 20260503110221 | 57 | 314 | 2.0 | 3.0 | 0.00 | 1.31 | 0.15 | 89 | 1013.1 |
| 20260503100220 | 54 | 285 | 3.0 | 5.0 | 0.01 | 1.32 | 0.15 | 99 | 1013.0 |
| 20260503090219 | 53 | 356 | 0.0 | 1.0 | 0.01 | 1.31 | 0.14 | 99 | 1012.8 |
| 20260503081219 | 53 | 266 | 0.0 | 2.0 | 0.00 | 1.36 | 0.13 | 99 | 1013.0 |
| 20260503080719 | 53 | 44 | 0.0 | 0.0 | 0.00 | 1.37 | 0.13 | 99 | 1013.0 |
| 20260503080219 | 53 | 347 | 0.0 | 1.0 | 0.00 | 1.38 | 0.13 | 99 | 1012.9 |
| 20260503072720 | 52 | 139 | 0.0 | 1.0 | 0.00 | 1.43 | 0.13 | 99 | 1012.9 |
| 20260503072219 | 52 | 127 | 1.0 | 1.0 | 0.00 | 1.43 | 0.13 | 99 | 1012.7 |
| 20260503071719 | 52 | 183 | 0.0 | 1.0 | 0.00 | 1.43 | 0.13 | 99 | 1012.8 |
| 20260503071219 | 53 | 133 | 1.0 | 2.0 | 0.00 | 1.44 | 0.13 | 99 | 1012.7 |
| 20260503070719 | 53 | 111 | 1.0 | 2.0 | 0.00 | 1.44 | 0.13 | 99 | 1012.6 |
| 20260503070219 | 52 | 150 | 0.0 | 0.0 | 0.00 | 1.46 | 0.13 | 99 | 1012.6 |
| 20260503060220 | 52 | 143 | 0.0 | 0.0 | 0.02 | 1.50 | 0.13 | 99 | 1012.2 |
| 20260503054720 | 52 | 143 | 0.0 | 0.0 | 0.02 | 1.50 | 0.13 | 99 | 1012.3 |
| 20260503054220 | 52 | 143 | 0.0 | 0.0 | 0.02 | 1.53 | 0.13 | 99 | 1012.3 |
| 20260503053720 | 52 | 143 | 0.0 | 0.0 | 0.02 | 1.54 | 0.13 | 99 | 1012.3 |
| 20260503053220 | 52 | 143 | 0.0 | 0.0 | 0.02 | 1.54 | 0.13 | 99 | 1012.2 |
| 20260503052720 | 52 | 143 | 0.0 | 0.0 | 0.02 | 1.54 | 0.13 | 99 | 1012.3 |
| 20260503052220 | 52 | 143 | 0.0 | 0.0 | 0.02 | 1.54 | 0.13 | 99 | 1012.3 |
| 20260503051719 | 52 | 143 | 0.0 | 0.0 | 0.02 | 1.54 | 0.13 | 99 | 1012.2 |
| 20260503051219 | 52 | 143 | 0.0 | 0.0 | 0.02 | 1.54 | 0.13 | 99 | 1012.2 |
| 20260503050719 | 52 | 210 | 0.0 | 0.0 | 0.01 | 1.53 | 0.12 | 99 | 1012.1 |
| 20260503050221 | 52 | 212 | 0.0 | 0.0 | 0.01 | 1.53 | 0.12 | 99 | 1012.1 |
| 20260503045720 | 52 | 212 | 0.0 | 0.0 | 0.00 | 1.52 | 0.11 | 99 | 1012.2 |
| 20260503045220 | 52 | 212 | 0.0 | 0.0 | 0.00 | 1.52 | 0.11 | 99 | 1012.1 |
| 20260503044720 | 52 | 212 | 0.0 | 0.0 | 0.00 | 1.52 | 0.11 | 99 | 1012.2 |
| 20260503044220 | 52 | 212 | 0.0 | 0.0 | 0.00 | 1.52 | 0.11 | 99 | 1012.1 |
| 20260503043720 | 52 | 212 | 0.0 | 0.0 | 0.00 | 1.52 | 0.11 | 99 | 1012.2 |
| 20260503043220 | 52 | 198 | 0.0 | 0.0 | 0.00 | 1.52 | 0.11 | 99 | 1012.2 |
| 20260503042720 | 52 | 198 | 0.0 | 0.0 | 0.00 | 1.52 | 0.11 | 99 | 1012.2 |
| 20260503042220 | 52 | 198 | 0.0 | 0.0 | 0.00 | 1.52 | 0.11 | 99 | 1012.2 |
| 20260503041720 | 52 | 198 | 0.0 | 0.0 | 0.00 | 1.52 | 0.11 | 99 | 1012.3 |
| 20260503041220 | 52 | 198 | 0.0 | 0.0 | 0.00 | 1.52 | 0.11 | 99 | 1012.3 |
| 20260503040720 | 52 | 198 | 0.0 | 0.0 | 0.00 | 1.52 | 0.11 | 99 | 1012.3 |
| 20260503040220 | 52 | 198 | 0.0 | 0.0 | 0.00 | 1.52 | 0.11 | 99 | 1012.3 |
| 20260503035719 | 52 | 198 | 0.0 | 0.0 | 0.00 | 1.52 | 0.11 | 99 | 1012.3 |
| 20260503035219 | 52 | 198 | 0.0 | 0.0 | 0.00 | 1.52 | 0.11 | 99 | 1012.4 |
| 20260503034719 | 52 | 198 | 0.0 | 0.0 | 0.00 | 1.52 | 0.11 | 99 | 1012.3 |
| 20260503034219 | 52 | 198 | 0.0 | 0.0 | 0.00 | 1.52 | 0.11 | 99 | 1012.4 |
| 20260503033721 | 52 | 198 | 0.0 | 0.0 | 0.00 | 1.52 | 0.11 | 99 | 1012.4 |
| 20260503033220 | 52 | 198 | 0.0 | 0.0 | 0.00 | 1.52 | 0.11 | 99 | 1012.5 |
| 20260503032720 | 52 | 198 | 0.0 | 0.0 | 0.00 | 1.52 | 0.11 | 99 | 1012.5 |
| 20260503032220 | 52 | 133 | 0.0 | 1.0 | 0.00 | 1.52 | 0.11 | 99 | 1012.5 |
| 20260503031719 | 52 | 124 | 0.0 | 0.0 | 0.00 | 1.52 | 0.11 | 99 | 1012.5 |
| 20260503031219 | 52 | 124 | 0.0 | 0.0 | 0.00 | 1.52 | 0.11 | 99 | 1012.5 |
| 20260503030719 | 52 | 106 | 0.0 | 0.0 | 0.00 | 1.52 | 0.11 | 99 | 1012.6 |
| 20260503030219 | 52 | 150 | 0.0 | 0.0 | 0.00 | 1.52 | 0.11 | 99 | 1012.6 |
| 20260503025721 | 52 | 150 | 0.0 | 0.0 | 0.00 | 1.52 | 0.11 | 99 | 1012.6 |
| 20260503025220 | 52 | 150 | 0.0 | 0.0 | 0.00 | 1.52 | 0.11 | 99 | 1012.7 |
| 20260503024720 | 52 | 150 | 0.0 | 0.0 | 0.00 | 1.52 | 0.11 | 99 | 1012.7 |
| 20260503024219 | 52 | 150 | 0.0 | 0.0 | 0.00 | 1.52 | 0.11 | 99 | 1012.6 |
| 20260503023719 | 53 | 135 | 0.0 | 0.0 | 0.00 | 1.52 | 0.11 | 99 | 1012.6 |
| 20260503023219 | 53 | 124 | 0.0 | 0.0 | 0.00 | 1.52 | 0.11 | 99 | 1012.6 |
| 20260503022719 | 53 | 207 | 0.0 | 0.0 | 0.00 | 1.52 | 0.11 | 99 | 1012.6 |
| 20260503022219 | 53 | 207 | 0.0 | 0.0 | 0.00 | 1.52 | 0.11 | 99 | 1012.6 |
| 20260503021719 | 53 | 207 | 0.0 | 0.0 | 0.00 | 1.52 | 0.11 | 99 | 1012.7 |
| 20260503021219 | 53 | 207 | 0.0 | 0.0 | 0.00 | 1.52 | 0.11 | 99 | 1012.8 |
| 20260503020721 | 53 | 207 | 0.0 | 0.0 | 0.00 | 1.52 | 0.11 | 99 | 1012.7 |
| 20260503020220 | 53 | 207 | 0.0 | 0.0 | 0.00 | 1.52 | 0.11 | 99 | 1012.8 |
| 20260503015720 | 53 | 207 | 0.0 | 0.0 | 0.00 | 1.52 | 0.11 | 99 | 1012.7 |
| 20260503015220 | 53 | 207 | 0.0 | 0.0 | 0.01 | 1.52 | 0.11 | 99 | 1012.9 |
| 20260503014720 | 53 | 207 | 0.0 | 0.0 | 0.02 | 1.52 | 0.11 | 99 | 1012.9 |
| 20260503014220 | 53 | 207 | 0.0 | 0.0 | 0.03 | 1.52 | 0.11 | 99 | 1013.0 |
| 20260503013720 | 53 | 207 | 0.0 | 0.0 | 0.03 | 1.52 | 0.11 | 99 | 1013.0 |
| 20260503013220 | 53 | 207 | 0.0 | 0.0 | 0.03 | 1.52 | 0.11 | 99 | 1013.0 |
| 20260503012720 | 53 | 207 | 0.0 | 0.0 | 0.03 | 1.52 | 0.11 | 99 | 1013.1 |
| 20260503012219 | 53 | 207 | 0.0 | 0.0 | 0.03 | 1.52 | 0.11 | 99 | 1013.1 |
| 20260503011719 | 53 | 207 | 0.0 | 0.0 | 0.03 | 1.52 | 0.11 | 99 | 1013.2 |
| 20260503011219 | 53 | 207 | 0.0 | 0.0 | 0.03 | 1.52 | 0.11 | 99 | 1013.2 |
| 20260503010719 | 53 | 207 | 0.0 | 0.0 | 0.03 | 1.52 | 0.11 | 99 | 1013.3 |
| 20260503010219 | 53 | 207 | 0.0 | 0.0 | 0.03 | 1.52 | 0.11 | 99 | 1013.3 |
| 20260503005719 | 53 | 208 | 0.0 | 0.0 | 0.03 | 1.52 | 0.11 | 99 | 1013.3 |
| 20260503005219 | 53 | 288 | 1.0 | 1.0 | 0.02 | 1.51 | 0.10 | 99 | 1013.3 |
| 20260503004719 | 53 | 255 | 1.0 | 2.0 | 0.02 | 1.50 | 0.09 | 99 | 1013.4 |
| 20260503004219 | 53 | 274 | 1.0 | 1.0 | 0.00 | 1.49 | 0.08 | 99 | 1013.5 |
| 20260503003719 | 54 | 264 | 1.0 | 2.0 | 0.00 | 1.49 | 0.08 | 99 | 1013.4 |
| 20260503003221 | 54 | 266 | 0.0 | 1.0 | 0.00 | 1.49 | 0.08 | 99 | 1013.5 |
| 20260503002721 | 54 | 271 | 0.0 | 2.0 | 0.00 | 1.49 | 0.08 | 99 | 1013.5 |
| 20260503002221 | 54 | 269 | 1.0 | 2.0 | 0.00 | 1.49 | 0.08 | 99 | 1013.5 |
| 20260503001720 | 54 | 252 | 0.0 | 1.0 | 0.00 | 1.49 | 0.08 | 99 | 1013.5 |
| 20260503001220 | 54 | 252 | 0.0 | 0.0 | 0.00 | 1.49 | 0.08 | 99 | 1013.7 |
| 20260503000720 | 54 | 252 | 0.0 | 0.0 | 0.00 | 1.49 | 0.08 | 99 | 1013.7 |
| 20260503000220 | 54 | 252 | 0.0 | 0.0 | 0.00 | 1.49 | 0.08 | 99 | 1013.7 |
| 20260502235720 | 54 | 252 | 0.0 | 0.0 | 0.01 | 1.49 | 0.08 | 99 | 1013.7 |
| 20260502235220 | 54 | 252 | 0.0 | 0.0 | 0.01 | 1.49 | 0.08 | 99 | 1013.8 |
| 20260502234720 | 54 | 252 | 0.0 | 0.0 | 0.01 | 1.49 | 0.08 | 99 | 1013.8 |
| 20260502234220 | 54 | 252 | 0.0 | 0.0 | 0.01 | 1.49 | 0.08 | 99 | 1013.8 |
| 20260502233719 | 54 | 252 | 0.0 | 0.0 | 0.01 | 1.49 | 0.08 | 99 | 1013.9 |
| 20260502233219 | 54 | 252 | 0.0 | 0.0 | 0.02 | 1.49 | 0.08 | 99 | 1013.9 |
| 20260502232719 | 54 | 252 | 0.0 | 0.0 | 0.04 | 1.49 | 0.08 | 99 | 1013.9 |
| 20260502232219 | 54 | 253 | 0.0 | 0.0 | 0.06 | 1.49 | 0.08 | 99 | 1013.8 |
| 20260502231719 | 54 | 262 | 0.0 | 0.0 | 0.06 | 1.49 | 0.08 | 99 | 1013.9 |
| 20260502231220 | 54 | 262 | 0.0 | 0.0 | 0.08 | 1.49 | 0.08 | 99 | 1013.9 |
| 20260502230720 | 54 | 262 | 0.0 | 0.0 | 0.08 | 1.49 | 0.08 | 99 | 1014.0 |
| 20260502230220 | 54 | 266 | 0.0 | 0.0 | 0.08 | 1.49 | 0.08 | 99 | 1014.0 |
| 20260502225720 | 54 | 266 | 0.0 | 0.0 | 0.00 | 1.48 | 0.07 | 99 | 1014.0 |
| 20260502225219 | 54 | 266 | 0.0 | 0.0 | 0.00 | 1.48 | 0.07 | 99 | 1014.0 |
| 20260502224719 | 54 | 266 | 0.0 | 0.0 | 0.00 | 1.48 | 0.07 | 99 | 1014.0 |
| 20260502224220 | 54 | 266 | 0.0 | 0.0 | 0.00 | 1.48 | 0.07 | 99 | 1014.0 |
| 20260502223720 | 54 | 265 | 0.0 | 0.0 | 0.00 | 1.48 | 0.07 | 99 | 1014.0 |
| 20260502223220 | 54 | 261 | 0.0 | 0.0 | 0.00 | 1.47 | 0.06 | 99 | 1014.1 |
| 20260502222720 | 54 | 261 | 0.0 | 0.0 | 0.00 | 1.45 | 0.04 | 99 | 1014.1 |
| 20260502222220 | 54 | 256 | 1.0 | 1.0 | 0.00 | 1.43 | 0.02 | 99 | 1014.0 |
| 20260502221720 | 54 | 271 | 2.0 | 2.0 | 0.00 | 1.43 | 0.02 | 99 | 1014.1 |
| 20260502221220 | 54 | 287 | 1.0 | 2.0 | 0.00 | 1.41 | 0.00 | 99 | 1014.1 |
| 20260502220720 | 54 | 271 | 0.0 | 1.0 | 0.00 | 1.41 | 0.00 | 99 | 1014.0 |
| 20260502220220 | 54 | 164 | 0.0 | 0.0 | 0.00 | 1.41 | 0.00 | 99 | 1014.0 |
| 20260502215720 | 54 | 136 | 0.0 | 0.0 | 0.01 | 1.41 | 1.41 | 99 | 1014.1 |
| 20260502215220 | 55 | 136 | 0.0 | 0.0 | 0.01 | 1.41 | 1.41 | 99 | 1014.2 |
| 20260502214720 | 54 | 136 | 0.0 | 0.0 | 0.00 | 1.40 | 1.40 | 99 | 1014.2 |
| 20260502214220 | 54 | 136 | 0.0 | 0.0 | 0.00 | 1.40 | 1.40 | 99 | 1014.2 |
| 20260502213720 | 54 | 136 | 0.0 | 0.0 | 0.00 | 1.40 | 1.40 | 99 | 1014.2 |
| 20260502213220 | 54 | 136 | 0.0 | 0.0 | 0.00 | 1.40 | 1.40 | 99 | 1014.2 |
| 20260502212720 | 54 | 136 | 0.0 | 0.0 | 0.00 | 1.40 | 1.40 | 99 | 1014.2 |
| 20260502212220 | 54 | 136 | 0.0 | 0.0 | 0.00 | 1.40 | 1.40 | 99 | 1014.2 |
| 20260502211719 | 54 | 136 | 0.0 | 0.0 | 0.00 | 1.40 | 1.40 | 99 | 1014.1 |
| 20260502211219 | 55 | 136 | 0.0 | 0.0 | 0.00 | 1.40 | 1.40 | 99 | 1014.2 |
| 20260502210719 | 55 | 135 | 0.0 | 1.0 | 0.00 | 1.40 | 1.40 | 99 | 1014.2 |
| 20260502210219 | 55 | 136 | 0.0 | 0.0 | 0.00 | 1.40 | 1.40 | 99 | 1014.1 |
| 20260502205719 | 55 | 136 | 0.0 | 0.0 | 0.00 | 1.40 | 1.40 | 99 | 1014.1 |
| 20260502205219 | 55 | 136 | 0.0 | 0.0 | 0.00 | 1.40 | 1.40 | 99 | 1014.1 |
| 20260502204719 | 55 | 136 | 0.0 | 0.0 | 0.00 | 1.40 | 1.40 | 99 | 1014.1 |
| 20260502204221 | 55 | 136 | 0.0 | 0.0 | 0.00 | 1.40 | 1.40 | 99 | 1014.1 |
| 20260502203720 | 55 | 280 | 0.0 | 0.0 | 0.00 | 1.40 | 1.40 | 99 | 1014.0 |
| 20260502203220 | 55 | 278 | 0.0 | 0.0 | 0.00 | 1.40 | 1.40 | 99 | 1014.1 |
| 20260502202720 | 55 | 278 | 0.0 | 0.0 | 0.00 | 1.40 | 1.40 | 99 | 1014.0 |
| 20260502202220 | 55 | 277 | 0.0 | 0.0 | 0.00 | 1.40 | 1.40 | 99 | 1013.9 |
| 20260502201720 | 55 | 277 | 0.0 | 0.0 | 0.00 | 1.40 | 1.40 | 99 | 1013.9 |
| 20260502201219 | 55 | 277 | 0.0 | 0.0 | 0.00 | 1.40 | 1.40 | 99 | 1013.8 |
| 20260502200719 | 55 | 277 | 0.0 | 0.0 | 0.00 | 1.40 | 1.40 | 99 | 1013.7 |
| 20260502200221 | 55 | 277 | 0.0 | 0.0 | 0.00 | 1.40 | 1.40 | 99 | 1013.6 |
| 20260502195721 | 55 | 277 | 0.0 | 0.0 | 0.00 | 1.40 | 1.40 | 99 | 1013.7 |
| 20260502195220 | 55 | 277 | 0.0 | 0.0 | 0.00 | 1.40 | 1.40 | 99 | 1013.8 |
| 20260502194720 | 55 | 277 | 0.0 | 0.0 | 0.00 | 1.40 | 1.40 | 99 | 1013.8 |
| 20260502194219 | 55 | 277 | 0.0 | 0.0 | 0.00 | 1.40 | 1.40 | 99 | 1013.7 |
| 20260502193719 | 55 | 277 | 0.0 | 0.0 | 0.00 | 1.40 | 1.40 | 99 | 1013.7 |
| 20260502193219 | 55 | 278 | 0.0 | 0.0 | 0.00 | 1.40 | 1.40 | 99 | 1013.7 |
| 20260502192719 | 55 | 278 | 0.0 | 0.0 | 0.00 | 1.40 | 1.40 | 99 | 1013.7 |
| 20260502192219 | 55 | 276 | 0.0 | 3.0 | 0.00 | 1.40 | 1.40 | 99 | 1013.6 |
| 20260502191720 | 55 | 278 | 0.0 | 1.0 | 0.00 | 1.40 | 1.40 | 99 | 1013.7 |
| 20260502191220 | 55 | 276 | 0.0 | 0.0 | 0.01 | 1.40 | 1.40 | 99 | 1013.7 |
| 20260502190720 | 55 | 260 | 0.0 | 1.0 | 0.05 | 1.40 | 1.40 | 99 | 1013.6 |
| 20260502190220 | 55 | 272 | 0.0 | 1.0 | 0.07 | 1.40 | 1.40 | 99 | 1013.6 |
| 20260502185720 | 55 | 280 | 2.0 | 3.0 | 0.09 | 1.40 | 1.40 | 99 | 1013.6 |
| 20260502185220 | 55 | 270 | 2.0 | 3.0 | 0.09 | 1.40 | 1.40 | 99 | 1013.6 |
| 20260502184720 | 55 | 267 | 1.0 | 2.0 | 0.09 | 1.40 | 1.40 | 99 | 1013.6 |
| 20260502184220 | 55 | 270 | 2.0 | 3.0 | 0.11 | 1.40 | 1.40 | 99 | 1013.5 |
| 20260502183719 | 55 | 291 | 2.0 | 3.0 | 0.11 | 1.40 | 1.40 | 99 | 1013.5 |
| 20260502183219 | 55 | 288 | 5.0 | 6.0 | 0.15 | 1.40 | 1.40 | 99 | 1013.4 |
| 20260502182719 | 55 | 287 | 6.0 | 8.0 | 0.17 | 1.40 | 1.40 | 99 | 1013.4 |
| 20260502182219 | 55 | 293 | 2.0 | 3.0 | 0.17 | 1.40 | 1.40 | 99 | 1013.4 |
| 20260502181719 | 55 | 293 | 7.0 | 8.0 | 0.17 | 1.40 | 1.40 | 99 | 1013.5 |
| 20260502181219 | 55 | 299 | 5.0 | 6.0 | 0.16 | 1.39 | 1.39 | 99 | 1013.5 |
| 20260502180719 | 55 | 297 | 3.0 | 10.0 | 0.12 | 1.35 | 1.35 | 99 | 1013.4 |
| 20260502180220 | 55 | 302 | 1.0 | 2.0 | 0.09 | 1.33 | 1.33 | 99 | 1013.4 |